GOKTURK 2               
1 39030U 12073A   19265.46385047  .00000003  00000-0  81860-5 0  9999
2 39030  97.9790 153.3733 0000786 356.5239   3.5964 14.72716062362315
CZ-2D DEB               
1 43405U 12073C   19265.10748811  .00001935  00000-0  94985-4 0  9999
2 43405  98.1745 323.6124 0065185 336.5199  23.3059 15.17692321320334
CZ-2D DEB               
1 43406U 12073D   19264.71040070  .00000530  00000-0  67039-4 0  9998
2 43406  97.9444 176.3949 0101612 229.8736 129.3542 14.82749013314680